Tiempo atmosférico en la estación meteorológica de Cortes De La Frontera, Málaga (315 m.)



Fecha
DESCASC
Temp. máxima en grados centígrados (hora)
DESCASC
Temp. mínima en grados centígrados (hora)
DESCASC
Temp. media en grados centígrados
DESCASC
Racha de viento máxima en m/sg (hora)
DESCASC
Velocidad máxima media en intervalos de 10 minutos(hora)
DESCASC
Precipitaciones diarias en mm
DESCASC
Precipitaciones de 00:00 a 06:00 en mm
DESCASC
Precipitaciones de 06:00 a 12:00 en mm
DESCASC
Precipitaciones de 12:00 a 18:00 en mm
DESCASC
Precipitaciones de 18:00 a 24:00 en mm
DESCASC
16-01-2020 16.3 (13:40) 2.7 (07:20) 9.5 5 (13:10) 1.94 (13:00) 0 0 0 0 0
15-01-2020 17.9 (13:50) 3.3 (08:20) 10.6 5 (15:50) 1.94 (16:00) 0 0 0 0 0
14-01-2020 14.5 (13:30) 2.9 (08:20) 8.7 4.44 (15:10) 1.39 (15:20) 0 0 0 0 0
13-01-2020 14.6 (15:30) 2.7 (06:30) 8.7 4.44 (16:00) 1.39 (15:50) 0 0 0 0 0
12-01-2020 15.1 (15:20) 3.4 (00:00) 9.3 3.89 (14:10) 1.39 (15:50) 0 0 0 0 0
11-01-2020 14.4 (16:00) 3.7 (00:00) 9 4.17 (17:00) 1.67 (16:40) 0 0 0 0 0
10-01-2020 14.5 (12:00) 5.6 (00:00) 10 7.22 (20:50) 1.94 (11:30) 0 0 0 0 0
09-01-2020 14.3 (15:20) 4.1 (00:00) 9.2 4.44 (15:40) 1.67 (15:40) 0 0 0 0 0
08-01-2020 16.2 (15:00) 3 (00:00) 9.6 4.17 (15:50) 1.67 (13:40) 0 0 0 0 0
07-01-2020 15.1 (15:20) 2.4 (00:00) 8.8 3.89 (16:30) 1.67 (13:50) 0 0 0 0 0
06-01-2020 14.9 (14:20) 4.6 (00:00) 9.7 4.72 (15:50) 1.67 (14:50) 0 0 0 0 0
05-01-2020 13.8 (15:40) 5.7 (00:00) 9.8 4.44 (14:50) 1.67 (14:50) 0 0 0 0 0
04-01-2020 13.7 (14:40) 5.1 (00:00) 9.4 3.06 (00:10) 1.11 (12:40) 0 0 0 0 0
03-01-2020 15.5 (14:40) 5.3 (00:00) 10.4 5 (16:10) 1.94 (15:40) 0 0 0 0 0
02-01-2020 14.4 (15:30) 5.6 (00:00) 10 3.89 (13:20) 1.67 (13:50) 0 0 0 0 0
01-01-2020 14.7 (12:50) 5.5 (00:00) 10.1 4.17 (13:50) 1.67 (14:00) 0 0 0 0 0
31-12-2019 15.4 (14:30) 5.6 (00:00) 10.5 4.72 (12:10) 1.94 (14:20) 0 0 0 0 0
30-12-2019 -- (--) -- (--) -- -- (--) -- (--) -- 0 0 -- 0
29-12-2019 15.8 (12:40) 6.3 (00:00) 11.1 6.11 (14:10) 1.94 (13:10) 0 0 0 0 0
28-12-2019 16.3 (13:00) 7.5 (00:00) 11.9 5.28 (13:50) 1.94 (13:20) 0 0 0 0 0
27-12-2019 17.9 (12:50) 9.2 (00:00) 13.5 4.44 (13:40) 1.67 (13:00) 0 0 0 0 0
26-12-2019 19.8 (15:30) 10.1 (00:00) 14.9 2.5 (14:30) 1.39 (13:40) 0 0 0 0 0
25-12-2019 19.6 (14:40) 6.8 (00:00) 13.2 3.61 (13:50) 1.39 (13:30) 0 0 0 0 0
24-12-2019 20.3 (14:50) 7.5 (00:00) 13.9 3.89 (13:20) 1.39 (13:20) 0 0 0 0 0
23-12-2019 22.6 (13:00) 8.8 (00:00) 15.7 5 (09:40) 1.94 (11:20) 0 0 0 0 0
22-12-2019 16.9 (15:00) 8.9 (00:00) 12.9 7.5 (12:50) 1.94 (04:30) 0 0 0 0 0
21-12-2019 16.7 (18:10) 13.1 (00:00) 14.9 7.5 (15:50) 1.94 (15:50) 24.2 9.4 4.6 7.8 2.4

Gráficas

Temp. máximas Temp. mínimas Temp. medias Precipitaciones Rachas de viento máximas Velocidades máximas media en intervalos de 10 minutos

Datos horarios

Fecha y hora oficial Temperatura (ºC) Velocidad del viento (km/h) Dirección del viento Racha (km/h) Dirección de racha Precipitación (mm) Presión (hPa) Tendencia (hPa) Humedad (%)
2020-01-19 23:00:00 8.1 10 Norte 40 Este 0 -- -- 70
2020-01-19 22:00:00 8.6 9 Norte 34 Norte 0 -- -- 69
2020-01-19 21:00:00 9.4 9 Norte 27 Noroeste 0 -- -- 64
2020-01-19 20:00:00 9.6 3 Nordeste 21 Norte 0 -- -- 68
2020-01-19 19:00:00 9.7 4 Norte 17 Norte 0 -- -- 67
2020-01-19 18:00:00 11.1 4 Norte 18 Norte 0 -- -- 67
2020-01-19 17:00:00 11.9 6 Norte 21 Nordeste 0 -- -- 60
2020-01-19 16:00:00 12 5 Norte 21 Norte 0 -- -- 62
2020-01-19 15:00:00 12.6 5 Noroeste 18 Noroeste 0 -- -- 65
2020-01-19 14:00:00 12.7 4 Noroeste 15 Noroeste 0 -- -- 69
2020-01-19 13:00:00 13.4 5 Nordeste 15 Nordeste 0 -- -- 69
2020-01-19 12:00:00 11.9 4 Nordeste 11 Norte 0 -- -- 72
2020-01-19 11:00:00 10.2 5 Sudeste 22 Norte 0 -- -- 80
2020-01-19 10:00:00 9 0 Calma 19 Norte 0 -- -- 84
2020-01-19 09:00:00 9 0 Calma 10 Este 0 -- -- 85
2020-01-19 08:00:00 9.2 4 Nordeste 20 Norte 0 -- -- 84
2020-01-19 07:00:00 9.9 4 Norte 18 Nordeste 0 -- -- 81
2020-01-19 06:00:00 10.1 4 Sudoeste 17 Norte 0 -- -- 84
2020-01-19 05:00:00 10.6 4 Norte 19 Este 0 -- -- 85
2020-01-19 04:00:00 10.3 4 Norte 23 Norte 0 -- -- 88
2020-01-19 03:00:00 11 6 Noroeste 27 Noroeste 0 -- -- 87
2020-01-19 02:00:00 11.8 5 Norte 35 Noroeste 0.4 -- -- 90
2020-01-19 01:00:00 14 3 Nordeste 9 Este 1.6 -- -- 95
2020-01-19 00:00:00 13.9 0 Calma 8 Nordeste 1.2 -- -- 97
2020-01-18 23:00:00 14 2 Nordeste 9 Sudeste 0.6 -- -- 98
2020-01-18 22:00:00 13.4 0 Calma 9 Sur 0.6 -- -- 97
2020-01-18 21:00:00 13.3 0 Calma 3 Norte 0.4 -- -- 97
2020-01-18 20:00:00 13.2 0 Calma 3 Noroeste 0.8 -- -- 96
2020-01-18 19:00:00 13.4 0 Calma 2 Noroeste 1.4 -- -- 95
2020-01-18 18:00:00 13.9 0 Calma 2 Sur 1 -- -- 94
2020-01-18 17:00:00 14.2 0 Calma 3 Noroeste 1 -- -- 92
2020-01-18 16:00:00 15 0 Calma 5 Sur 0.2 -- -- 87
2020-01-18 15:00:00 15.6 0 Calma 5 Oeste 0 -- -- 76
2020-01-18 14:00:00 14.9 0 Calma 5 Oeste 0 -- -- 71
2020-01-18 13:00:00 14.1 2 Sudoeste 4 Sur 0 -- -- 77
2020-01-18 12:00:00 11 0 Calma 2 Sur 0 -- -- 83
2020-01-18 11:00:00 9.3 0 Calma 2 Sur 0 -- -- 85
2020-01-18 10:00:00 8 0 Calma 2 Sudoeste 0 -- -- 90
2020-01-18 09:00:00 7.3 0 Calma 2 Norte 0 -- -- 92
2020-01-18 08:00:00 7.1 0 Calma 2 Norte 0 -- -- 90
2020-01-18 07:00:00 7.2 0 Calma 3 Norte 0 -- -- 91
2020-01-18 06:00:00 7.2 0 Calma 3 Norte 0 -- -- 91
2020-01-18 05:00:00 6.8 0 Calma 3 Norte 0 -- -- 92
2020-01-18 04:00:00 6.7 0 Calma 5 Sudoeste 0 -- -- 93
2020-01-18 03:00:00 6.4 0 Calma 3 Norte 0 -- -- 92
2020-01-18 02:00:00 7.1 2 Noroeste 4 Noroeste 0 -- -- 92
2020-01-18 01:00:00 7.8 2 Norte 3 Norte 0 -- -- 92
2020-01-18 00:00:00 8.4 0 Calma 4 Noroeste 0 -- -- 92
2020-01-17 23:00:00 8.8 0 Calma 4 Noroeste 0 -- -- 91
2020-01-17 22:00:00 9.4 3 Norte 4 Noroeste 0 -- -- 90
2020-01-17 21:00:00 10.1 0 Calma 5 Noroeste 0 -- -- 87
2020-01-17 20:00:00 11.4 0 Calma 5 Noroeste 0 -- -- 86
2020-01-17 19:00:00 12.8 0 Calma 10 Norte 0 -- -- 82
2020-01-17 18:00:00 14.4 0 Calma 14 Noroeste 0 -- -- 77
2020-01-17 17:00:00 16 3 Noroeste 15 Norte 0 -- -- 68
2020-01-17 16:00:00 16.9 2 Norte 12 Noroeste 0 -- -- 63
2020-01-17 15:00:00 17.1 4 Noroeste 16 Noroeste 0 -- -- 66
2020-01-17 14:00:00 17.4 5 Norte 18 Nordeste 0 -- -- 67
2020-01-17 13:00:00 16.8 5 Nordeste 18 Norte 0 -- -- 73
2020-01-17 12:00:00 13.4 0 Calma 5 Sur 0 -- -- 66
2020-01-17 11:00:00 10.5 0 Calma 7 Sur 0 -- -- 74
2020-01-17 10:00:00 8.3 0 Calma 4 Sudeste 0 -- -- 81
2020-01-17 09:00:00 6 0 Calma 3 Sur 0 -- -- 87
2020-01-17 08:00:00 5.3 0 Calma 2 Noroeste 0 -- -- 88
2020-01-17 07:00:00 4.7 0 Calma 2 Noroeste 0 -- -- 88
2020-01-17 06:00:00 4.4 0 Calma 3 Norte 0 -- -- 86
2020-01-17 05:00:00 4.9 0 Calma 3 Norte 0 -- -- 86
2020-01-17 04:00:00 4.8 2 Noroeste 3 Norte 0 -- -- 87
2020-01-17 03:00:00 4.9 0 Calma 3 Noroeste 0 -- -- 86
2020-01-17 02:00:00 5.4 0 Calma 4 Norte 0 -- -- 86
2020-01-17 01:00:00 5.8 0 Calma 3 Noroeste 0 -- -- 86
2020-01-17 00:00:00 6.7 2 Norte 3 Norte 0 -- -- 90
2020-01-16 23:00:00 7.3 0 Calma 2 Noroeste 0 -- -- 91
2020-01-16 22:00:00 7.6 0 Calma 2 Norte 0 -- -- 89
2020-01-16 21:00:00 8.4 0 Calma 3 Noroeste 0 -- -- 87
2020-01-16 20:00:00 9.3 2 Norte 4 Noroeste 0 -- -- 82
2020-01-16 19:00:00 10.5 2 Norte 4 Norte 0 -- -- 76
2020-01-16 18:00:00 12.9 3 Noroeste 6 Este 0 -- -- 68
2020-01-16 17:00:00 14.9 3 Sur 10 Sur 0 -- -- 58
2020-01-16 16:00:00 16.1 5 Sur 17 Sudoeste 0 -- -- 54
2020-01-16 15:00:00 16.2 4 Sur 15 Sudoeste 0 -- -- 55
2020-01-16 14:00:00 16.3 5 Sur 18 Sur 0 -- -- 59
2020-01-16 13:00:00 16 7 Sur 15 Sur 0 -- -- 58
2020-01-16 12:00:00 14.2 3 Sur 5 Sur 0 -- -- 51
2020-01-16 11:00:00 9.9 2 Sur 4 Sudoeste 0 -- -- 63
2020-01-16 10:00:00 6.2 0 Calma 3 Norte 0 -- -- 76
2020-01-16 09:00:00 2.7 0 Calma 2 Norte 0 -- -- 91
2020-01-16 08:00:00 2.7 0 Calma 2 Noroeste 0 -- -- 89
2020-01-16 07:00:00 2.8 0 Calma 2 Norte 0 -- -- 86
2020-01-16 06:00:00 3 2 Noroeste 3 Noroeste 0 -- -- 85
2020-01-16 05:00:00 3.3 0 Calma 3 Norte 0 -- -- 84
2020-01-16 04:00:00 3.6 0 Calma 2 Norte 0 -- -- 84
2020-01-16 03:00:00 4 0 Calma 3 Noroeste 0 -- -- 82
2020-01-16 02:00:00 4.6 0 Calma 3 Noroeste 0 -- -- 81
2020-01-16 01:00:00 4.8 2 Norte 3 Norte 0 -- -- 79
2020-01-16 00:00:00 5.4 0 Calma 3 Norte 0 -- -- 79
2020-01-15 23:00:00 6.1 0 Calma 3 Norte 0 -- -- 77
2020-01-15 22:00:00 6.8 0 Calma 3 Norte 0 -- -- 74
2020-01-15 21:00:00 7.9 0 Calma -- -- 0 -- -- 71
2020-01-15 20:00:00 8.8 2 Norte 4 Norte 0 -- -- 68
2020-01-15 19:00:00 10.7 2 Norte 4 Norte 0 -- -- 65
2020-01-15 18:00:00 13.1 2 Noroeste 8 Sur 0 -- -- 61
2020-01-15 17:00:00 16.1 3 Sur 16 Sudeste 0 -- -- 45
2020-01-15 16:00:00 17.4 7 Sur 18 Oeste 0 -- -- 38
2020-01-15 15:00:00 17.8 6 Sur 16 Sur 0 -- -- 40
2020-01-15 14:00:00 17.8 5 Sur 13 Sur 0 -- -- 45
2020-01-15 13:00:00 17.2 5 Sudeste 10 Este 0 -- -- 49
2020-01-15 12:00:00 14.4 0 Calma 5 Sur 0 -- -- 61
2020-01-15 11:00:00 10.1 3 Sur 8 Sudoeste 0 -- -- 73
2020-01-15 10:00:00 6.1 2 Sur 3 Sur 0 -- -- 92
2020-01-15 09:00:00 3.3 0 Calma 2 Norte 0 -- -- 96
2020-01-15 08:00:00 3.5 0 Calma 2 Norte 0 -- -- 95
2020-01-15 07:00:00 3.8 0 Calma 2 Noroeste 0 -- -- 95
2020-01-15 06:00:00 4 0 Calma 3 Norte 0 -- -- 94
2020-01-15 05:00:00 4.5 0 Calma 2 Noroeste 0 -- -- 93
2020-01-15 04:00:00 5.1 0 Calma 2 Norte 0 -- -- 93
2020-01-15 03:00:00 5.3 0 Calma 2 Norte 0 -- -- 92
2020-01-15 02:00:00 5.7 0 Calma 3 Norte 0 -- -- 91
2020-01-15 01:00:00 6.1 0 Calma 3 Norte 0 -- -- 89
2020-01-15 00:00:00 6.8 0 Calma 3 Norte 0 -- -- 88
2020-01-14 23:00:00 7.1 0 Calma 3 Norte 0 -- -- 87
2020-01-14 22:00:00 7.5 0 Calma 4 Norte 0 -- -- 85
2020-01-14 21:00:00 8.3 0 Calma 4 Norte 0 -- -- 83
2020-01-14 20:00:00 8.7 0 Calma 5 Norte 0 -- -- 81
2020-01-14 19:00:00 9.7 0 Calma 7 Noroeste 0 -- -- 77
2020-01-14 18:00:00 11.9 3 Norte 8 Norte 0 -- -- 67
2020-01-14 17:00:00 13.9 3 Norte 9 Norte 0 -- -- 59
2020-01-14 16:00:00 14.4 3 Norte 16 Noroeste 0 -- -- 53
2020-01-14 15:00:00 14.3 3 Noroeste 15 Noroeste 0 -- -- 52
2020-01-14 14:00:00 14.1 4 Norte 15 Noroeste 0 -- -- 56
2020-01-14 13:00:00 14.3 4 Sur 9 Sur 0 -- -- 60
2020-01-14 12:00:00 11.3 2 Sur 8 Sur 0 -- -- 74
2020-01-14 11:00:00 6.7 2 Sur 5 Sudoeste 0 -- -- 92
2020-01-14 10:00:00 4.4 0 Calma 2 Sur 0 -- -- 98
2020-01-14 09:00:00 3 0 Calma 2 Norte 0 -- -- 98
2020-01-14 08:00:00 3 0 Calma 2 Noroeste 0 -- -- 97
2020-01-14 07:00:00 3.2 0 Calma 2 Noroeste 0 -- -- 97
2020-01-14 06:00:00 3.3 0 Calma 2 Norte 0 -- -- 96
2020-01-14 05:00:00 3.8 0 Calma 2 Noroeste 0 -- -- 97
2020-01-14 04:00:00 4.1 0 Calma 2 Norte 0 -- -- 96
2020-01-14 03:00:00 4.5 0 Calma 2 Norte 0 -- -- 96
2020-01-14 02:00:00 5 0 Calma 3 Norte 0 -- -- 95
2020-01-14 01:00:00 5.5 0 Calma 3 Noroeste 0 -- -- 95
2020-01-14 00:00:00 6.1 2 Norte 3 Norte 0 -- -- 95
2020-01-13 23:00:00 6.3 0 Calma 4 Noroeste 0 -- -- 94
2020-01-13 22:00:00 6.7 0 Calma 2 Norte 0 -- -- 92
2020-01-13 21:00:00 7.6 0 Calma -- -- 0 -- -- 91
2020-01-13 20:00:00 8.6 2 Norte 2 Norte 0 -- -- 87
2020-01-13 19:00:00 10 0 Calma 4 Sudoeste 0 -- -- 85
2020-01-13 18:00:00 11.8 0 Calma 9 Sur 0 -- -- 80
2020-01-13 17:00:00 13.7 4 Sur 13 Sur 0 -- -- 70
2020-01-13 16:00:00 14.5 5 Sur 16 Sudeste 0 -- -- 65
2020-01-13 15:00:00 14.5 4 Sur 12 Sur 0 -- -- 64
2020-01-13 14:00:00 14.1 4 Sur 14 Sur 0 -- -- 67
2020-01-13 13:00:00 14.1 3 Sudeste 12 Sur 0 -- -- 63
2020-01-13 12:00:00 13 4 Sur 9 Sur 0 -- -- 65
2020-01-13 11:00:00 9.6 0 Calma 3 Sur 0 -- -- 82
2020-01-13 10:00:00 5.4 0 Calma 2 Sur 0 -- -- 98
2020-01-13 09:00:00 2.9 0 Calma 3 Norte 0 -- -- 98
2020-01-13 08:00:00 2.9 0 Calma 2 Norte 0 -- -- 98
2020-01-13 07:00:00 2.8 0 Calma 3 Norte 0 -- -- 97
2020-01-13 06:00:00 2.8 0 Calma 2 Norte 0 -- -- 97
2020-01-13 05:00:00 3 0 Calma 2 Norte 0 -- -- 96
2020-01-13 04:00:00 3.5 0 Calma 2 Noroeste 0 -- -- 96
2020-01-13 03:00:00 4 0 Calma 2 Noroeste 0 -- -- 96
2020-01-13 02:00:00 4.4 0 Calma 2 Norte 0 -- -- 95
2020-01-13 01:00:00 4.8 0 Calma 2 Norte 0 -- -- 95
2020-01-13 00:00:00 5.3 0 Calma 2 Norte 0 -- -- 94
2020-01-12 23:00:00 5.8 0 Calma 3 Norte 0 -- -- 93
2020-01-12 22:00:00 6.6 0 Calma 2 Norte 0 -- -- 91
2020-01-12 21:00:00 7.5 0 Calma -- -- 0 -- -- 91
2020-01-12 20:00:00 8.4 2 Norte 3 Noroeste 0 -- -- 88
2020-01-12 19:00:00 9.5 2 Norte 4 Norte 0 -- -- 83
2020-01-12 18:00:00 11.8 0 Calma 8 Sudeste 0 -- -- 77
2020-01-12 17:00:00 14.1 2 Sudeste 11 Sudoeste 0 -- -- 69
2020-01-12 16:00:00 14.9 4 Sur 13 Sudoeste 0 -- -- 64
2020-01-12 15:00:00 14.9 4 Sur 14 Sudeste 0 -- -- 63
2020-01-12 14:00:00 14.8 5 Sudoeste 12 Sudoeste 0 -- -- 65
2020-01-12 13:00:00 15 5 Sur 9 Sudoeste 0 -- -- 64
2020-01-12 12:00:00 13.3 2 Sur 5 Sur 0 -- -- 67
2020-01-12 11:00:00 9.3 2 Sur 5 Sur 0 -- -- 79
2020-01-12 10:00:00 5.7 0 Calma 3 Sur 0 -- -- 95
2020-01-12 09:00:00 3.4 0 Calma 2 Norte 0 -- -- 97
2020-01-12 08:00:00 3.7 0 Calma 2 Noroeste 0 -- -- 97
2020-01-12 07:00:00 3.9 0 Calma 3 Norte 0 -- -- 97
2020-01-12 06:00:00 4.2 0 Calma 3 Norte 0 -- -- 96
2020-01-12 05:00:00 4.3 0 Calma 2 Noroeste 0 -- -- 96
2020-01-12 04:00:00 4.5 0 Calma 3 Norte 0 -- -- 96
2020-01-12 03:00:00 4.8 0 Calma 2 Norte 0 -- -- 95
2020-01-12 02:00:00 5.6 0 Calma 4 Norte 0 -- -- 94
2020-01-12 01:00:00 5.9 3 Norte 4 Norte 0 -- -- 94
2020-01-12 00:00:00 5.9 0 Calma 3 Norte 0 -- -- 93
2020-01-11 23:00:00 6.3 0 Calma 3 Norte 0 -- -- 93
2020-01-11 22:00:00 6.4 0 Calma 3 Norte 0 -- -- 91
2020-01-11 21:00:00 7 2 Norte 3 Norte 0 -- -- 88
2020-01-11 20:00:00 8.1 2 Norte 4 Noroeste 0 -- -- 85
2020-01-11 19:00:00 9.4 0 Calma 5 Norte 0 -- -- 81
2020-01-11 18:00:00 11.3 2 Noroeste 12 Sudeste 0 -- -- 76
2020-01-11 17:00:00 13.7 3 Sur 15 Sur 0 -- -- 65
2020-01-11 16:00:00 14.4 4 Sur 12 Sur 0 -- -- 63
2020-01-11 15:00:00 12.7 0 Calma 4 Sudeste 0 -- -- 75
2020-01-11 14:00:00 12.7 0 Calma 5 Sudoeste 0 -- -- 77
2020-01-11 13:00:00 11.1 2 Norte 4 Sur 0 -- -- 78
2020-01-11 12:00:00 11.2 0 Calma 4 Sudeste 0 -- -- 72
2020-01-11 11:00:00 9 3 Sur 6 Sur 0 -- -- 75
2020-01-11 10:00:00 4.8 0 Calma 2 Sur 0 -- -- 92
2020-01-11 09:00:00 3.8 0 Calma 3 Norte 0 -- -- 93
2020-01-11 08:00:00 3.7 0 Calma 3 Norte 0 -- -- 92
2020-01-11 07:00:00 4.1 0 Calma 3 Norte 0 -- -- 88
2020-01-11 06:00:00 4.4 0 Calma 4 Norte 0 -- -- 89
2020-01-11 05:00:00 4.6 0 Calma 3 Norte 0 -- -- 86
2020-01-11 04:00:00 4.9 0 Calma 3 Norte 0 -- -- 83
2020-01-11 03:00:00 5.5 0 Calma 5 Nordeste 0 -- -- 79
2020-01-11 02:00:00 6.6 2 Norte 7 Este 0 -- -- 74
2020-01-11 01:00:00 7.9 3 Este 8 Nordeste 0 -- -- 65
2020-01-11 00:00:00 9.6 2 Este 17 Norte 0 -- -- 60
2020-01-10 23:00:00 10.2 6 Norte 22 Este 0 -- -- 57
2020-01-10 22:00:00 10.2 5 Norte 19 Nordeste 0 -- -- 60
2020-01-10 21:00:00 10.7 3 Nordeste 26 Norte 0 -- -- 63
2020-01-10 20:00:00 9.9 3 Norte 20 Noroeste 0 -- -- 75
2020-01-10 19:00:00 10.1 3 Norte 13 Norte 0 -- -- 76
2020-01-10 18:00:00 12.1 6 Norte 21 Nordeste 0 -- -- 66
2020-01-10 17:00:00 13.1 3 Nordeste 16 Noroeste 0 -- -- 65
2020-01-10 16:00:00 13.5 4 Noroeste 17 Oeste 0 -- -- 69
2020-01-10 15:00:00 13.9 4 Norte 17 Oeste 0 -- -- 70
2020-01-10 14:00:00 14.2 6 Noroeste 21 Noroeste 0 -- -- 66
2020-01-10 13:00:00 13.9 4 Norte 12 Nordeste 0 -- -- 67
2020-01-10 12:00:00 14.5 4 Norte 17 Nordeste 0 -- -- 68
2020-01-10 11:00:00 12.9 3 Este 8 Este 0 -- -- 76
2020-01-10 10:00:00 8.1 0 Calma 3 Sur 0 -- -- 96
2020-01-10 09:00:00 6.1 0 Calma 2 Sudeste 0 -- -- 98
2020-01-10 08:00:00 6 0 Calma 3 Noroeste 0 -- -- 97
2020-01-10 07:00:00 6.1 0 Calma 3 Norte 0 -- -- 97
2020-01-10 06:00:00 5.7 0 Calma 3 Norte 0 -- -- 96
2020-01-10 05:00:00 6.1 0 Calma 4 Norte 0 -- -- 96
2020-01-10 04:00:00 6.2 0 Calma 3 Norte 0 -- -- 96
2020-01-10 03:00:00 6.2 2 Norte 4 Norte 0 -- -- 96
2020-01-10 02:00:00 6.4 0 Calma 4 Sudoeste 0 -- -- 96
2020-01-10 01:00:00 6.5 0 Calma 8 Sudoeste 0 -- -- 94
2020-01-10 00:00:00 7.1 2 Norte 6 Nordeste 0 -- -- 96
2020-01-09 23:00:00 6.6 0 Calma 3 Noroeste 0 -- -- 94
2020-01-09 22:00:00 7.3 0 Calma -- -- 0 -- -- 92
2020-01-09 21:00:00 8 0 Calma 3 Norte 0 -- -- 90
2020-01-09 20:00:00 9.2 2 Norte -- -- 0 -- -- 88
2020-01-09 19:00:00 9.8 2 Noroeste 3 Noroeste 0 -- -- 86
2020-01-09 18:00:00 11.8 0 Calma 5 Sur 0 -- -- 83
2020-01-09 17:00:00 13.4 3 Sudoeste 14 Sur 0 -- -- 75
2020-01-09 16:00:00 13.9 4 Sur 16 Sudoeste 0 -- -- 73
2020-01-09 15:00:00 13.9 4 Sur 13 Oeste 0 -- -- 73
2020-01-09 14:00:00 14.1 5 Sur 11 Sur 0 -- -- 74
2020-01-09 13:00:00 13.9 4 Sur 12 Sur 0 -- -- 75
2020-01-09 12:00:00 12.4 2 Este 5 Sudeste 0 -- -- 75
2020-01-09 11:00:00 9.4 0 Calma 4 Sur 0 -- -- 87
2020-01-09 10:00:00 6.2 0 Calma 3 Sur 0 -- -- 98
2020-01-09 09:00:00 4.1 0 Calma 2 Norte 0 -- -- 97
2020-01-09 08:00:00 4.4 0 Calma 3 Noroeste 0 -- -- 97
2020-01-09 07:00:00 4.5 0 Calma 2 Noroeste 0 -- -- 96
2020-01-09 06:00:00 4.9 0 Calma 2 Norte 0 -- -- 96
2020-01-09 05:00:00 5.3 0 Calma 3 Norte 0 -- -- 95
2020-01-09 04:00:00 5.8 2 Norte 2 Noroeste 0 -- -- 94
2020-01-09 03:00:00 6.5 2 Norte 2 Norte 0 -- -- 93
2020-01-09 02:00:00 7.6 2 Noroeste 2 Noroeste 0 -- -- 91
2020-01-09 01:00:00 9.1 0 Calma 4 Sur 0 -- -- 91
2020-01-09 00:00:00 8.9 0 Calma 3 Sudoeste 0 -- -- 92
2020-01-08 23:00:00 8.6 0 Calma 2 Norte 0 -- -- 92
2020-01-08 22:00:00 8 0 Calma 2 Sur 0 -- -- 92
2020-01-08 21:00:00 8 2 Noroeste -- -- 0 -- -- 89
2020-01-08 20:00:00 9 2 Norte 3 Noroeste 0 -- -- 85
2020-01-08 19:00:00 10.4 2 Noroeste 4 Norte 0 -- -- 81
2020-01-08 18:00:00 12.3 2 Norte 5 Sur 0 -- -- 76
2020-01-08 17:00:00 14.2 0 Calma 10 Sudoeste 0 -- -- 64
2020-01-08 16:00:00 16 3 Sur 15 Sur 0 -- -- 54
2020-01-08 15:00:00 16.2 5 Sur 13 Sur 0 -- -- 58
2020-01-08 14:00:00 15.8 5 Sur 10 Sur 0 -- -- 49
2020-01-08 13:00:00 16.1 4 Sur 10 Sur 0 -- -- 48
2020-01-08 12:00:00 13.5 2 Sudeste 5 Sudeste 0 -- -- 57
2020-01-08 11:00:00 10 0 Calma 5 Sudeste 0 -- -- 68
2020-01-08 10:00:00 6 0 Calma 3 Sur 0 -- -- 89
2020-01-08 09:00:00 3 0 Calma 3 Norte 0 -- -- 96
2020-01-08 08:00:00 3 0 Calma 3 Norte 0 -- -- 96
2020-01-08 07:00:00 3.4 2 Norte 3 Norte 0 -- -- 97
2020-01-08 06:00:00 3.7 0 Calma 3 Norte 0 -- -- 97
2020-01-08 05:00:00 4 0 Calma 3 Norte 0 -- -- 97
2020-01-08 04:00:00 4.5 0 Calma 2 Noroeste 0 -- -- 97
2020-01-08 03:00:00 4.8 0 Calma 3 Norte 0 -- -- 96
2020-01-08 02:00:00 5.2 0 Calma 2 Norte 0 -- -- 96
2020-01-08 01:00:00 5.8 0 Calma 2 Noroeste 0 -- -- 96
2020-01-08 00:00:00 6.2 0 Calma 3 Norte 0 -- -- 95
2020-01-07 23:00:00 6.7 0 Calma 2 Norte 0 -- -- 95
2020-01-07 22:00:00 7.2 0 Calma 3 Noroeste 0 -- -- 94
2020-01-07 21:00:00 7.8 0 Calma 4 Norte 0 -- -- 92
2020-01-07 20:00:00 8.7 2 Noroeste -- -- 0 -- -- 91
2020-01-07 19:00:00 9.8 2 Norte 3 Norte 0 -- -- 87
2020-01-07 18:00:00 11.8 2 Norte 6 Sur 0 -- -- 85
2020-01-07 17:00:00 13.8 3 Sudoeste 14 Sudoeste 0 -- -- 78
2020-01-07 16:00:00 14.9 5 Sur 13 Sur 0 -- -- 72
2020-01-07 15:00:00 15 4 Sur 12 Sudoeste 0 -- -- 72
2020-01-07 14:00:00 14.5 5 Sur 13 Sur 0 -- -- 75
2020-01-07 13:00:00 14.5 4 Sur 10 Sur 0 -- -- 74
2020-01-07 12:00:00 12.5 3 Sur 7 Sudeste 0 -- -- 73
2020-01-07 11:00:00 8.8 0 Calma 4 Sur 0 -- -- 83
2020-01-07 10:00:00 5 0 Calma 3 Sudoeste 0 -- -- 97
2020-01-07 09:00:00 2.4 0 Calma 2 Norte 0 -- -- 97
2020-01-07 08:00:00 2.7 0 Calma 2 Norte 0 -- -- 97
2020-01-07 07:00:00 3.2 0 Calma 2 Norte 0 -- -- 97
2020-01-07 06:00:00 3.5 0 Calma 2 Norte 0 -- -- 97
2020-01-07 05:00:00 3.9 0 Calma 2 Norte 0 -- -- 97
2020-01-07 04:00:00 4.3 0 Calma 2 Norte 0 -- -- 97
2020-01-07 03:00:00 4.6 2 Norte 3 Norte 0 -- -- 96
2020-01-07 02:00:00 4.8 0 Calma 2 Norte 0 -- -- 96
2020-01-07 01:00:00 5.2 0 Calma 2 Norte 0 -- -- 95
2020-01-07 00:00:00 5.7 0 Calma 2 Noroeste 0 -- -- 95
2020-01-06 23:00:00 6.1 0 Calma 2 Norte 0 -- -- 94
2020-01-06 22:00:00 6.5 0 Calma -- -- 0 -- -- 93
2020-01-06 21:00:00 7.2 0 Calma 3 Norte 0 -- -- 92
2020-01-06 20:00:00 8 2 Norte 3 Noroeste 0 -- -- 89
2020-01-06 19:00:00 9.4 0 Calma 4 Norte 0 -- -- 86
2020-01-06 18:00:00 11.4 0 Calma 9 Sur 0 -- -- 81
2020-01-06 17:00:00 13.3 4 Sur 16 Sur 0 -- -- 74
2020-01-06 16:00:00 14.4 5 Sur 17 Sudoeste 0 -- -- 69
2020-01-06 15:00:00 14.9 5 Sur 16 Sur 0 -- -- 66
2020-01-06 14:00:00 14.7 5 Sur 9 Sur 0 -- -- 63
2020-01-06 13:00:00 14.8 4 Sur 11 Sudeste 0 -- -- 64
2020-01-06 12:00:00 13.4 2 Sudeste 5 Sudeste 0 -- -- 72
2020-01-06 11:00:00 9.8 2 Sur 4 Sur 0 -- -- 82
2020-01-06 10:00:00 6.5 0 Calma 3 Sudoeste 0 -- -- 97